{"data":{"norad_id":67925,"epoch":"2026-05-25T01:47:38.198688Z","epoch_age_seconds":65211,"freshness":"FRESH","line1":"1 67925U 26036X   26145.07474767  .00014424  00000+0  53238-3 0  9994","line2":"2 67925  42.9990 173.9323 0001158 246.8030 113.2700 15.27597943 15406","mean_motion":15.27597943,"eccentricity":0.0001158,"inclination_deg":42.999,"raan_deg":173.9323,"arg_perigee_deg":246.803,"mean_anomaly_deg":113.27,"bstar":0.00053238,"rev_number":1540,"period_min":94.26564146663,"perigee_km":482.20084964029,"apogee_km":483.7898878969,"semimajor_km":6861.1323687686,"source":"CELESTRAK","updated_at":"2026-05-25T13:38:21.741908Z"}}